Regional Weather Roundup
Issued by NWS Northern Indiana

Home | Current Version | Previous Version | Graphics & Text | Print | Product List | Glossary On
Versions: 1 2 3 4 5 6 7 8 9 10 11 12 13 14 15 16 17 18 19 20 21 22 23 24 25 26 27 28 29 30 31 32 33 34 35 36 37 38 39 40 41 42 43 44 45 46 47 48 49 50
000
ASUS43 KIWX 042010
RWRIWX

KIWX WEATHER ROUNDUP
NATIONAL WEATHER SERVICE NORTHERN INDIANA
400 PM EDT WED MAY 04 2016

NOTE: "FAIR" INDICATES FEW OR NO CLOUDS BELOW 12,000 FEET WITH NO
SIGNIFICANT WEATHER AND/OR OBSTRUCTIONS TO VISIBILITY.

* THESE STATIONS ARE NOT UNDER NWS QUALITY CONTROL. THEY ALSO MAY NOT
  REPORT WEATHER SUCH AS PRECIPITATION OR FOG.

INZ001>027-042100-
NORTHERN INDIANA

CITY           SKY/WX    TMP DP  RH WIND       PRES   REMARKS
GARY*          CLOUDY    48  45  87 N14G25    29.81R
VALPARAISO     PTSUNNY   46  36  68 N21G31    29.78R
MICHIGAN CITY* CLOUDY    45  37  76 NW20G28   29.79R
LAPORTE*       PTSUNNY   49  38  66 N25G37    29.76S
KNOX*          PTSUNNY   50  32  50 N25G33    29.75S
SOUTH BEND     CLOUDY    43  36  76 NW20G31   29.74R
ELKHART*       CLOUDY    43  39  87 NW14G26   29.71R
GOSHEN         CLOUDY    44  38  79 NW25      29.69R
MONTICELLO*    CLOUDY    51  34  52 N23       29.75S
LOGANSPORT*    CLOUDY    50  41  71 NW15G22   29.75S
ROCHESTER*     PTSUNNY   50  41  71 NW21G32   29.73R
WARSAW*        CLOUDY    45  37  76 NW23      29.70R
ANGOLA*        CLOUDY    46  37  71 NW14      29.63R
FORT WAYNE     CLOUDY    48  40  73 NW20G28   29.67R
HUNTINGTON*    CLOUDY    47  40  76 NW16G24   29.69S
MARION*        CLOUDY    48  41  74 NW22G28   29.72R

$$
INZ028>050-042100-
CENTRAL INDIANA

CITY           SKY/WX    TMP DP  RH WIND       PRES   REMARKS
LAFAYETTE      PTSUNNY   53  39  59 N17G26    29.76R
KOKOMO*        CLOUDY    50  39  66 NW24      29.73R
MUNCIE*        CLOUDY    52  41  66 W22G28    29.70R
INDIANAPOLIS   PTSUNNY   54  40  59 NW18      29.72F

$$
MIZ043>046-050>051-056>058-064>065-071>073-077>080-042100-
SOUTHWEST LOWER MICHIGAN

CITY           SKY/WX    TMP DP  RH WIND       PRES   REMARKS
BATTLE CREEK   LGT RAIN  44  41  89 NW15      29.63R FOG
BENTON HARBOR  LGT RAIN  42  35  76 NW16G28   29.74S
COLDWATER*     CLOUDY    47  42  85 NW15G21   29.62R
HILLSDALE*     CLOUDY    46  38  72 NW17G23   29.60R
HOLLAND        LGT RAIN N/A N/A N/A NW12G22   29.69R
GRAND RAPIDS   LGT RAIN  44  40  85 N20G26    29.64R
KALAMAZOO      LGT RAIN  44  39  82 NW17G26   29.65R
STURGIS*       FLURRIES  43  40  89 NW16G23   29.65R
THREE RIVERS*  LGT RAIN  44  39  84 NW20G25   29.67R

$$
OHZ001>008-015>018-024>025-042100-
NORTHWEST OHIO

CITY           SKY/WX    TMP DP  RH WIND       PRES   REMARKS
WAUSEON*         N/A     50 N/A N/A W16       29.60R
DEFIANCE       CLOUDY    50  42  74 NW17G24   29.63R
FINDLAY        CLOUDY    51  43  74 W14       29.60S
TOLEDO EXPRESS CLOUDY    52  42  69 W15       29.59R
TOLEDO METCALF CLOUDY    53  46  77 W14       29.60R
LIMA           CLOUDY    50  43  77 NW21G26   29.63R

$$
AND FOR LAKE MICHIGAN COASTAL AND OPEN LAKE BUOY OBSERVATIONS

STATION/POSITION TEMP    WIND        PRES    VSBY  WAVE
                 AIR SEA DIR/SP/G                  HT/PER
                 (F)     (DEG/KT/KT) (MB)    (MI)  (FT/S)
CALUMET HARBOR    45     330/ 15/ 20 1008.7R
MICHIGAN CITY     43     330/ 25/ 29   N/A
BURNS HARBOR      44     360/ 20/ 24 1009.1R
SAINT JOSEPH      43     330/ 26/ 31 1008.1R
SOUTH LAKE BUOY   41 40  360/ 21/ 25 1007.7R         8/ 8
4 MI NW BRIDGMAN  43 47                N/A          12/ 7

$$
&&




USA.gov is the U.S. government's official web portal to all federal, state and local government web resources and services.